Hicksville, OH (43526)

7:11 PM EST on February 14, 2016 (GMT -0500)
Hicksville | | Change Station
CLOSE
Current Station
Personal Weather Station
Location: Hicksville, OH
Elevation: 774 ft
Nearby Weather Stations

Elev 774 ft 41.30 °N, 84.76 °W | Updated 29 seconds ago

Overcast
Overcast
16.3 °F
Feels Like 10 °F
N
4.2
Wind Variable Wind from ESE

Today
High -- | Low -- °F
--% Chance of Precip.
Yesterday
High -- | Low -- °F
Precip. -- in
Pressure 30.22 in
Visibility 3.0 miles
Clouds Few 1300 ft
Overcast 2900 ft
Windchill 10 °F
Dew Point 14 °F
Humidity 89%
Rainfall 0.00 in
Snow Depth Not available.
7:35 AM 6:11 PM
Waxing Crescent, 46% visible
SPECI KDFI 142359Z AUTO 11011G17KT 3SM -SN FEW013 OVC029 M08/M11 A3022 RMK AO2 P0000 T10781111
Pressure 30.22 in
Visibility 3.0 miles
Clouds Few 1300 ft
Overcast 2900 ft
Windchill 10 °F
Dew Point 14 °F
Humidity 89%
Rainfall 0.00 in
Snow Depth Not available.
7:35 AM 6:11 PM
Waxing Crescent, 46% visible
SPECI KDFI 142359Z AUTO 11011G17KT 3SM -SN FEW013 OVC029 M08/M11 A3022 RMK AO2 P0000 T10781111

10-Day Weather Forecast

Almanac

Astronomy

Feb. 14, 2016 Rise Set
Actual Time
Civil Twilight
Nautical Twilight
Astronomical Twilight
Moon
Length of Visible Light
Length of Day
Tomorrow will be .
, % of the Moon is Illuminated

Today's Extremes

State Highs State Lows

Community

WunderPhotos

Upload Photos

1,892,938 photos uploaded!

WunderBlog® & News

Nearby

Air Quality

  Air Quality AQ Index Pollutant
Not available.

Snow Depth

Station Depth Elevation

Earthquake Activity

City Distance Mag. Time & Date
Minimum magnitude displayed is 2.5.

Coastal Water Temperatures

Place Temperature

Stations

Nearby Weather Stations

Station Location Temp. Windchill Dew Point Humidity Wind Precip. Elev Updated Type
                   

Watches & Warnings

There are currently no watches in effect.